2024-125B

Last updated on Sun Aug 04 2024 00:02:04 GMT+0000 (Coordinated Universal Time)

1 60204U 24125B 24216.53065307 .00026779 00000+0 11543-2 0 9996 2 60204 97.3194 68.6007 0023361 140.8666 219.4266 15.22284917 4612
UTC large
Height (km)
Speed (km/s)
/
Latitude / Longitude
Inclination (degrees)
Orbital Period (minutes)
Azimuth
Elevation
Range (km)
Doppler Factor

Next 0 passes for location: London (51.5072 / 0.1276)

Sorry there are no passes over London.